Regional Weather Roundup
Issued by NWS

Home | Current Version | Previous Version | Text Only | Print | Product List | Glossary On
Versions: 1 2 3 4 5 6 7 8 9 10 11 12 13 14 15 16 17 18 19 20 21 22 23 24 25 26 27 28 29 30 31 32 33 34 35 36 37 38 39 40 41 42 43 44 45 46 47 48 49 50
431
ASUS45 KBOU 280807
RWRCO

WEATHER ROUNDUP FOR COLORADO
NATIONAL WEATHER SERVICE DENVER/BOULDER CO
200 AM MDT FRI JUL 28 2017

NOTE: "FAIR" INDICATES FEW OR NO CLOUDS BELOW 12000 FEET WITH NO
SIGNIFICANT WEATHER AND/OR OBSTRUCTIONS TO VISIBILITY.

COZ001>005-013-030-031-280900-
...NORTHWEST COLORADO...

CITY           SKY/WX    TMP DP  RH WIND       PRES   REMARKS
CRAIG          FAIR      55  51  86 CALM      30.23R
HAYDEN         FAIR      59  46  63 E8        30.25S
MEEKER         FAIR      61  51  70 NE3       30.24R
RABBIT EARS PA FAIR      54  41  62 NW6       30.55S
STEAMBOAT SPGS FAIR      54  48  79 CALM      30.28S
WALDEN         FAIR      48  41  76 S5        30.37S
$$

COZ006>008-011-280900-
...WEST CENTRAL VALLEYS...

CITY           SKY/WX    TMP DP  RH WIND       PRES   REMARKS
GRAND JUNCTION FAIR      74  52  46 E6        30.07R
MONTROSE       FAIR      68  52  56 SE6       30.16S
EAGLE          FAIR      62  49  62 CALM      30.28R
RIFLE          FAIR      67  53  61 E3        30.15S
DELTA          FAIR      72  51  47 E3        30.12S
NUCLA          FAIR      70  50  49 SE3       30.23S
$$

COZ017>023-064>068-280900-
...SOUTHWEST COLORADO...

CITY           SKY/WX    TMP DP  RH WIND       PRES   REMARKS
DURANGO        CLOUDY    66  56  70 N12       30.31R
CORTEZ         FAIR      68  57  68 NE6       30.21R
PAGOSA SPRINGS CLOUDY    64  53  68 W3        30.38R
TELLURIDE      MOCLDY    58  49  70 CALM      30.45F
WOLF CREEK PAS CLOUDY    46  45  93 SW7       30.70F
$$

COZ009-010-012-014-032>034-037-058>063-280900-
...CENTRAL COLORADO...

CITY           SKY/WX    TMP DP  RH WIND       PRES   REMARKS
ASPEN          MOCLDY    60  48  64 SW6       30.33S
BUENA VISTA    FAIR      56  53  88 W3        30.38F
COPPER MTN     FAIR      54  41  62 SW8       30.67F
BERTHOUD PASS  FAIR      45  34  65 NW16G24   30.69S
COTTONWOOD PAS FAIR      59  46  63 W7G16     30.50F
GUNNISON       FAIR      59  50  72 N10       30.35F
KREMMLING      FAIR      55  50  82 CALM      30.34S
LEADVILLE      FAIR      47  45  93 E5        30.51R
MONARCH PASS   FAIR      50  39  66 SW8       30.76F
SALIDA         FAIR      62  55  78 CALM      30.42F
SUNLIGHT       FAIR      52  41  66 NE3       30.59S
WILKERSON PASS FAIR      50  41  71 W7        30.64S
$$

COZ069>075-280900-
...SAN LUIS VALLEY/SANGRE DE CRISTO MOUNTAINS...

CITY           SKY/WX    TMP DP  RH WIND       PRES   REMARKS
ALAMOSA        FAIR      57  54  89 CALM      30.34F
DEL NORTE      CLOUDY    60  55  83 SE3       30.38S
LA VETA PASS   NOT AVBL
SAGUACHE         N/A    N/A N/A N/A MISG        N/A
$$

COZ035-036-038>040-280900-
...NORTHERN COLORADO FRONT RANGE...

CITY           SKY/WX    TMP DP  RH WIND       PRES   REMARKS
DENVER INTL AP MOCLDY    71  54  54 SW14      30.11F
DMNS CITY PARK   N/A     70  54  56 E8        30.11S
AURORA         MOCLDY    70  54  58 S13       30.13F
FRONT RANGE AP FAIR      68  59  73 SE6       30.13F
ERIE MUNI ARPT FAIR      65  59  80 CALM      30.09S
BOULDER MUN AP FAIR      72  59  64 CALM      30.10S
CENTENNIAL     MOCLDY    70  53  54 SW10      30.15F
BROOMFIELD     FAIR      70  54  56 CALM      30.13F
FORT COLLINS   FAIR      63  61  93 NW5       30.10R
LONGMONT       FAIR      65  58  80 CALM      30.11R
$$

COZ041-046-047-076>085-087-088-280900-
...PIKES PEAK/PALMER DIVIDE AND SOUTHERN FOOTHILLS...

CITY           SKY/WX    TMP DP  RH WIND       PRES   REMARKS
COLO. SPRINGS  CLOUDY    67  65  93 E6        30.23F FOG
A. F. ACADEMY  CLOUDY    65  65  99 S6        30.24S
SCHRIEVER AFB  MOCLDY    64  63  97 SE7       30.23F FOG
CHEYENNE MTN   MOCLDY    64  58  80 NW5       30.22F
ELLICOTT       MOCLDY   N/A N/A N/A SE5       30.21S
FALCON         FOG       64  63  98 S6        30.28S VSB 1/4
FORT CARSON    MOCLDY    66  66 100 NE3       30.19F
LIMON          CLOUDY    63  63 100 S8        30.17F FOG
MONUMENT HILL  FAIR      61  59  94 S7        30.27F
CANON CITY     PTCLDY    70  57  64 NW10      30.16S
WALSENBURG     FAIR      64  57  77 SW6       30.21F
TRINIDAD       FAIR      63  54  72 W6        30.20F
$$

COZ042>045-048>051-090-091-280900-
...NORTHEAST COLORADO...

CITY           SKY/WX    TMP DP  RH WIND       PRES   REMARKS
GREELEY ARPT   NOT AVBL
AKRON          FAIR      69  62  78 SE17      30.12F
BURLINGTON     FAIR      63  62  97 SE5       30.13S
WRAY           NOT AVBL
YUMA           CLOUDY    63  54  72 E8        30.13F
STERLING       FAIR      63  63 100 S5        30.05F
HOLYOKE        LGT RAIN  64  63  94 SE17G25   30.03F
FORT MORGAN    FAIR      68  61  77 SE9       30.09F
$$

COZ086-089-092>099-280900-
...SOUTHEAST COLORADO...

CITY           SKY/WX    TMP DP  RH WIND       PRES   REMARKS
PUEBLO         FAIR      69  66  90 N6        30.11S
LA JUNTA       FAIR      70  67  90 SE6       30.10S
LAMAR          FAIR      69  66  90 CALM      30.07S
SPRINGFIELD      N/A     66  65  96 SW6       30.13S
$$




USA.gov is the U.S. government's official web portal to all federal, state and local government web resources and services.